Tracking 19903 objects as of 17-Oct-2019
HD Live streaming from Space Station
objects crossing your sky now

IRIDIUM 33 DEB

Track IRIDIUM 33 DEB now!
10-day predictions


NORAD ID: 33960
Int'l Code: 1997-051BV
Perigee: 735.8 km
Apogee: 747.2 km
Inclination: 86.3 °
Period: 99.5 minutes
Semi major axis: 7112 km
RCS: 0.042 m2 (small)
Launch date: September 14, 1997
Source: United States (US)
Launch site: TYURATAM MISSILE AND SPACE COMPLEX (TTMTR)

Note: This is SATELLITE DEBRIS
aabbcc
Your satellite tracking list
Your tracking list is empty




NASA's NSSDC Master Catalog

Two Line Element Set (TLE):
1 33960U 97051BV  19288.86686611  .00000257  00000-0  64597-4 0  9992
2 33960  86.2778 217.9637 0007949 111.5789 311.9358 14.47336080561421
Source of the keplerian elements: AFSPC